SORCE

Last updated on July 6, 2021, 3:27 p.m. UTC

1 27651U 03004A   21186.89917673  .00000178  00000-0  32434-4 0  9992
2 27651  39.9968 351.3649 0022964 200.3792 159.6082 14.89325150  1385
UTC
Height (km)
Latitude
Longitude
Inclination
Orbital Period
UTC large
Height (km)
Speed (km/s)
/
Latitude / Longitude
Inclination (degrees)
Orbital Period (minutes)
Azimuth
Elevation
Range (km)
Doppler Factor
iOS Compass Heading
iOS Angle